RH
39 36 34 34 35 35 36 35 35 34 32 32 32 33 35 36 34 30 26 27 28 28 28 29 30 30 29 25 22 19 17 16 16 16 16 17 17 17 17 16 16 16 16 17 18 19 20 20 20 20 20 20 20 20 20 20 19 18 17 15 15 15 16 16 15 15 14 14 14 14 13 12 11 11 11 20 25 27 27 26 24 23 22 22 23 25 28 29 29 30 30 29 27 26 25 22 20 19 17 18 18 18 18
39 38 37 36 36 36 36 36 36 35 33 33 33 33 34 36 35 31 26 27 28 28 28 30 31 31 30 27 23 20 18 17 16 16 17 17 17 17 17 17 16 16 16 16 17 18 19 20 20 21 21 21 21 21 21 20 20 20 20 18 17 17 17 17 16 16 15 15 15 14 13 12 11 11 13 22 26 27 27 26 25 23 21 22 23 25 28 29 29 29 29 29 28 26 24 21 19 18 17 17 17 17 17
38 40 42 40 39 38 38 38 38 37 37 35 34 34 34 36 36 32 26 27 28 28 29 30 31 31 30 28 25 22 20 18 17 16 16 17 17 18 17 17 17 17 16 17 17 18 19 20 20 21 21 21 21 21 21 21 20 20 21 20 20 19 18 17 17 16 15 15 14 14 13 12 11 12 13 23 27 27 27 27 26 24 21 21 22 24 28 29 29 29 29 30 28 26 24 21 18 17 17 17 17 17 17
36 39 42 43 42 40 39 39 39 39 39 37 35 35 35 37 36 33 27 28 28 29 29 31 31 32 30 29 27 24 21 19 18 17 17 17 17 18 18 18 17 17 17 17 18 18 19 20 21 21 22 22 22 21 21 21 20 19 19 21 21 21 20 20 18 17 15 14 13 13 12 11 11 12 13 22 26 27 27 27 26 25 22 21 21 23 27 28 29 29 29 30 28 26 23 20 18 17 17 17 17 17 17
35 38 40 42 42 41 40 40 40 39 38 36 35 35 35 37 36 34 29 29 29 29 30 31 32 32 31 30 28 26 23 21 19 18 17 17 17 18 18 18 18 18 18 18 18 19 20 20 21 22 22 23 22 22 22 21 20 19 19 20 21 22 22 22 21 20 16 14 13 12 12 12 11 11 12 22 26 27 27 27 26 25 23 21 21 21 23 27 28 29 29 30 28 25 20 19 18 17 17 17 17 17 17
35 37 40 40 41 41 40 40 39 39 36 34 33 33 34 36 35 34 30 29 29 30 30 32 32 32 31 30 29 27 25 23 21 19 18 18 18 18 18 19 18 18 18 19 19 20 20 21 22 23 23 24 23 23 22 21 20 20 19 20 21 22 22 22 23 23 21 20 19 18 16 15 13 12 12 20 25 27 27 27 27 25 24 23 22 20 20 22 24 26 28 29 27 24 18 17 17 17 18 18 18 18 18
35 37 39 40 40 40 40 39 38 36 34 31 31 31 33 34 34 33 31 30 30 30 31 32 33 33 32 31 29 28 26 24 22 20 19 18 18 18 18 19 19 19 19 19 20 20 21 22 23 24 24 24 24 24 23 22 21 20 21 22 22 23 23 23 25 26 26 28 28 27 25 22 19 17 15 20 25 29 28 28 28 27 25 25 24 22 19 19 20 22 24 26 24 21 17 17 17 17 18 18 18 18 18
37 37 39 40 40 40 39 37 36 34 32 30 29 29 30 31 32 32 31 30 30 30 31 32 33 33 32 31 30 28 26 24 23 21 20 19 18 18 19 19 19 19 20 20 20 21 22 23 24 24 24 24 24 24 23 22 22 23 25 25 25 25 24 27 30 32 32 32 33 33 32 30 28 25 23 23 27 31 31 30 30 29 27 27 27 25 22 20 19 19 20 22 21 19 17 17 18 18 18 18 18 18 18
41 40 39 39 39 39 38 36 35 34 32 30 28 26 27 29 30 30 30 30 29 29 30 32 33 33 33 31 30 29 27 25 23 22 20 20 19 18 19 19 19 20 21 21 22 22 23 24 24 24 25 25 24 24 23 23 25 27 28 29 29 28 27 32 34 36 38 36 34 34 36 34 32 30 27 25 29 33 33 32 32 31 30 29 27 26 24 21 20 19 19 20 19 18 18 18 18 19 19 19 19 19 19
43 42 40 38 38 37 36 35 35 35 34 31 28 26 25 27 28 29 30 30 29 29 29 31 32 33 33 32 31 29 28 26 24 23 22 21 20 19 19 20 20 21 21 22 23 24 24 24 24 25 25 25 24 24 23 24 27 29 31 32 33 33 32 35 36 37 41 39 36 35 37 38 37 34 29 27 30 34 36 35 33 32 31 31 30 28 25 22 21 20 20 20 19 18 18 19 19 20 20 20 20 20 21
40 41 39 38 37 36 36 35 35 36 36 33 30 27 25 26 27 28 29 29 29 28 29 30 31 32 32 32 31 30 29 27 26 24 23 22 21 20 20 20 21 21 22 23 24 24 25 25 25 25 24 24 24 24 24 26 28 30 32 33 34 35 35 39 40 41 42 40 38 37 37 39 39 36 31 28 29 32 37 36 35 33 32 31 31 30 26 23 21 21 21 21 20 19 19 19 20 20 20 21 21 21 22
35 36 35 36 36 36 35 35 36 37 38 35 31 28 26 26 27 28 29 29 29 28 28 29 30 31 32 32 31 30 30 29 28 26 25 24 23 22 21 21 21 22 23 24 24 25 25 25 25 25 25 24 24 24 25 27 29 31 31 33 33 34 35 37 38 38 38 37 36 35 35 40 40 37 33 30 29 30 35 36 36 34 32 31 31 29 26 22 21 21 21 22 22 21 20 20 20 20 21 21 22 22 23
31 30 31 32 33 34 35 35 37 38 38 36 32 30 28 27 28 28 29 30 29 29 29 29 30 31 32 32 32 31 31 30 29 28 27 26 25 23 22 22 22 22 23 24 24 24 24 25 25 25 24 24 25 26 27 29 30 30 30 31 32 32 33 33 33 34 34 34 33 33 33 36 36 35 32 30 28 27 30 34 34 33 32 30 29 27 23 21 20 20 21 21 22 21 21 22 22 21 21 22 22 23 24
30 29 29 30 31 32 33 34 37 38 39 36 33 31 29 29 29 30 30 31 30 30 29 29 30 31 32 32 33 32 32 32 31 30 29 28 27 25 24 23 23 23 23 24 24 24 24 25 25 25 25 25 26 27 28 30 30 30 31 31 31 31 31 30 31 33 34 32 31 31 32 33 32 31 29 28 26 25 25 27 29 30 29 27 25 23 21 20 20 20 21 21 21 21 21 22 22 22 22 23 23 24 25
30 29 28 28 29 30 32 34 36 37 37 36 34 32 30 30 30 31 32 32 32 31 30 30 31 31 32 33 33 33 33 33 33 32 31 30 28 27 25 24 23 23 23 23 24 24 25 25 25 26 26 27 28 29 30 31 31 31 31 31 31 31 31 30 30 32 32 29 29 31 33 33 31 29 27 26 24 24 23 23 23 23 23 22 21 20 20 20 20 21 21 21 21 21 22 22 23 23 23 24 25 25 26
30 30 28 28 28 29 32 34 35 35 34 35 34 33 31 31 32 33 34 34 33 32 31 31 31 32 32 33 34 34 35 35 34 34 33 32 31 29 27 26 25 24 24 24 25 25 26 27 27 28 28 29 29 30 31 32 32 32 32 32 33 34 33 31 30 29 29 29 30 32 35 34 32 30 27 25 24 23 22 21 21 20 20 19 19 19 19 20 21 22 22 22 23 23 24 24 24 24 25 26 26 27 27
31 31 29 28 28 29 31 32 32 31 31 34 35 34 32 31 32 33 35 35 34 33 32 32 32 32 33 33 34 35 36 36 35 35 34 34 32 31 29 28 26 25 25 25 26 27 28 28 29 29 30 30 30 31 33 33 33 33 33 34 35 36 36 34 32 31 30 31 32 34 37 36 34 31 28 26 25 24 23 22 22 21 21 20 20 20 20 21 22 23 24 24 24 25 25 26 26 26 27 27 28 29 29
32 31 30 29 29 30 31 31 29 28 29 32 34 35 33 32 32 33 35 36 35 34 33 33 33 33 34 34 34 35 36 36 37 36 35 35 34 33 31 29 28 27 27 27 28 28 29 30 30 31 31 31 31 32 34 34 34 34 34 35 37 38 38 37 36 34 32 33 33 34 38 37 35 32 29 28 27 26 25 25 24 24 24 24 24 24 23 24 24 25 25 26 27 27 28 28 28 29 29 30 30 31 31
32 32 31 31 31 31 31 30 28 27 27 30 33 35 34 33 32 32 34 35 35 35 34 34 34 34 34 34 34 34 36 37 37 37 36 36 35 34 33 31 30 29 29 29 29 30 31 31 32 32 32 32 32 33 34 35 34 34 35 36 38 39 40 40 39 39 37 35 34 34 36 34 33 32 31 31 31 30 28 27 27 27 27 28 28 28 28 28 28 28 29 29 29 30 31 31 31 32 32 33 33 33 34
32 31 31 32 32 33 33 31 29 28 28 30 32 34 35 34 32 32 32 34 35 35 35 34 34 34 34 34 34 34 35 36 37 37 37 37 36 36 35 34 33 32 31 31 31 32 32 32 33 33 33 33 33 34 35 35 35 35 35 37 39 40 41 42 43 43 42 39 36 35 34 33 32 32 32 34 34 33 31 30 29 30 30 31 31 31 32 32 32 32 32 33 33 33 34 34 35 35 35 36 36 36 36
33 32 32 33 34 35 35 34 32 31 29 30 32 34 35 34 33 32 31 32 33 34 34 34 34 34 34 34 34 34 34 36 37 37 38 37 37 37 37 36 36 35 34 33 33 33 33 33 34 34 34 34 34 35 36 36 36 36 36 37 39 40 42 44 46 47 46 43 40 38 36 34 34 33 33 36 37 36 34 32 32 32 32 33 33 34 34 34 34 35 35 36 36 36 37 37 37 38 38 38 38 38 38
34 34 34 35 36 36 37 37 35 34 32 32 33 34 34 34 33 32 31 32 32 33 33 33 33 33 34 33 33 33 34 35 36 37 38 38 38 38 38 38 37 37 36 36 35 35 35 35 35 35 35 35 36 36 37 37 36 37 37 37 39 41 43 45 47 49 49 47 45 42 39 37 36 35 34 36 38 38 36 35 34 34 34 34 35 35 35 35 36 36 37 37 38 38 38 39 39 40 40 40 40 40 40
36 36 37 38 38 38 39 38 38 36 35 34 34 34 34 34 33 32 31 31 32 32 32 32 31 31 32 32 32 33 33 34 35 37 37 38 38 38 38 38 38 38 38 38 37 37 36 36 36 36 36 36 37 37 37 37 37 37 38 38 39 41 43 45 48 50 51 50 48 45 43 41 39 38 37 37 37 38 37 37 36 35 35 36 36 36 36 36 37 37 38 38 39 39 40 40 40 40 40 41 41 41 41
38 38 39 40 40 39 39 39 38 38 36 36 35 35 35 34 33 32 32 31 31 31 31 31 30 30 30 31 31 32 32 33 34 36 37 38 38 38 38 38 38 39 39 39 39 38 38 38 37 37 37 37 38 38 38 37 37 38 39 39 40 41 43 44 47 49 49 49 50 49 48 45 43 41 40 39 38 38 38 38 37 37 37 37 37 38 38 38 38 39 39 39 40 40 40 41 41 41 41 41 41 41 41
40 40 40 41 41 41 41 40 39 38 38 37 37 36 36 35 33 32 32 32 32 31 31 30 30 29 29 30 31 31 31 32 33 34 36 37 37 38 38 38 38 39 39 39 39 39 39 39 39 39 38 38 38 38 38 37 37 38 39 39 40 40 42 44 46 48 50 49 49 51 52 50 48 45 44 42 41 40 40 39 38 38 38 38 38 39 39 39 39 40 40 40 41 41 41 41 41 41 41 41 41 41 42
44 42 41 41 41 41 41 40 39 39 39 39 38 38 37 36 34 33 33 33 33 32 31 31 30 30 30 30 31 31 31 31 32 33 34 35 36 37 37 38 38 39 39 39 40 40 40 41 40 40 39 39 38 38 38 37 38 38 39 39 39 40 41 42 43 45 47 49 49 50 51 51 51 50 48 46 45 44 42 41 40 39 39 38 39 39 40 40 41 41 41 41 42 42 42 42 42 41 41 41 41 41 42
50 47 44 42 40 40 40 39 39 40 40 40 40 39 39 37 35 34 33 33 33 33 32 31 31 31 31 31 31 31 31 31 32 32 33 34 35 35 36 37 37 38 39 39 39 40 41 41 41 41 40 39 39 38 38 38 38 38 39 39 39 39 39 40 41 42 43 45 48 50 52 51 53 55 53 51 49 47 45 43 42 40 39 38 38 39 39 40 41 42 43 43 43 42 42 42 42 42 41 41 41 41 42
52 51 46 42 39 38 39 39 39 40 41 42 42 41 41 38 36 34 34 34 34 34 33 32 32 31 32 32 32 32 31 31 31 31 32 32 33 34 34 35 36 37 38 38 39 39 40 41 41 41 41 40 39 38 37 37 37 38 38 38 38 38 38 38 38 39 39 40 43 46 49 51 53 55 56 55 53 50 48 47 45 42 41 39 38 38 38 39 41 43 44 44 44 43 43 43 43 43 42 42 42 42 43
46 47 45 40 38 37 36 37 39 40 42 43 44 44 44 40 37 35 34 34 34 34 33 32 32 32 32 32 32 32 32 31 31 30 30 31 31 32 32 33 34 35 36 37 37 38 39 40 40 41 41 41 40 39 38 37 36 36 36 36 36 36 36 36 36 36 37 37 39 42 47 49 52 54 56 56 55 53 51 49 47 45 42 40 39 38 37 38 40 42 44 45 45 44 44 44 44 43 43 43 43 43 44
38 40 40 38 37 36 36 37 38 40 43 45 47 48 50 47 42 37 34 34 34 34 33 33 32 32 31 31 31 31 31 31 30 30 29 29 29 30 30 31 32 32 33 34 36 37 38 38 39 40 40 40 40 39 38 37 36 35 34 34 34 34 34 34 34 34 34 35 36 38 42 46 49 52 54 55 55 54 52 49 47 45 44 42 40 38 37 38 39 41 43 44 45 45 45 45 45 44 44 44 44 45 45
36 38 39 39 38 37 37 38 40 42 44 46 49 53 58 56 49 41 34 34 34 34 34 33 32 32 31 31 30 30 30 30 30 30 29 28 28 28 29 29 30 30 31 32 33 35 36 36 37 38 38 38 38 38 37 36 35 34 33 33 32 32 31 31 31 31 32 32 34 36 38 43 46 49 49 51 52 52 50 48 46 44 44 42 40 39 38 38 39 40 42 44 45 45 46 45 45 44 44 44 44 45 45
36 38 41 41 40 39 39 40 42 44 46 48 53 58 61 60 55 47 37 34 34 34 34 33 32 32 31 31 30 30 30 30 30 30 29 28 28 27 27 28 28 29 29 30 31 32 33 34 35 35 36 36 36 36 35 35 34 33 32 32 31 30 30 29 29 29 29 31 32 34 36 39 42 44 45 47 48 48 48 47 45 44 43 43 42 41 40 39 40 41 42 43 44 45 44 44 43 43 43 43 44 45 46
36 39 42 42 42 41 41 42 43 44 47 52 57 61 62 61 57 50 40 36 34 34 34 34 33 33 32 31 30 30 31 31 31 30 29 28 27 27 27 27 27 27 27 28 28 29 30 31 32 32 33 33 34 34 34 33 33 32 31 31 30 29 28 28 27 27 28 29 31 33 35 37 38 39 40 41 42 43 43 43 43 43 42 43 43 43 42 42 41 42 42 43 43 43 42 42 41 42 42 43 44 45 46
38 41 45 45 45 44 43 44 44 46 49 54 59 62 62 60 56 51 43 39 37 36 36 36 35 35 33 32 31 32 33 33 32 31 30 28 27 27 26 26 26 26 26 27 27 27 27 28 29 30 31 32 32 32 32 32 31 31 31 30 30 29 28 28 27 27 28 29 30 32 33 35 35 36 37 37 38 40 42 44 44 43 41 42 43 44 44 44 43 43 43 42 42 41 41 41 41 42 42 43 44 46 47
44 49 53 52 50 48 46 45 46 48 51 55 58 60 59 58 55 51 46 43 41 40 39 39 38 37 36 34 33 33 34 34 33 32 30 29 28 27 27 27 26 26 26 26 26 26 26 26 27 28 29 30 31 31 31 31 30 31 31 30 30 30 30 29 29 28 28 29 30 30 31 32 33 33 34 34 35 36 39 42 43 43 43 44 44 44 45 45 45 44 43 42 42 42 42 42 42 43 43 44 45 46 47
55 59 60 58 54 51 49 48 48 50 52 54 56 57 57 57 55 52 48 46 44 43 42 41 41 40 38 36 34 34 34 35 34 32 31 30 29 28 28 27 27 26 26 26 26 25 25 26 26 27 28 29 30 30 30 30 30 31 31 31 31 31 31 31 31 30 29 29 29 29 30 30 30 31 31 32 33 34 35 38 40 42 43 44 44 43 43 44 43 43 44 44 45 44 44 44 43 43 43 44 45 47 48
60 64 62 59 56 52 50 50 49 50 51 52 54 55 55 56 56 54 51 48 47 46 45 44 43 42 41 38 36 34 35 35 34 33 32 31 30 29 29 28 27 27 26 26 26 25 26 26 26 27 28 29 30 30 31 31 31 31 32 32 32 32 32 32 32 31 31 30 29 29 28 28 28 29 29 30 31 32 33 34 35 37 39 41 42 41 41 41 41 42 44 47 48 47 46 45 44 44 44 46 48 50 52
60 63 62 57 53 50 50 50 50 50 51 52 53 54 55 57 58 57 55 52 50 49 48 47 45 44 43 40 38 36 35 35 35 34 33 32 32 31 30 29 28 27 27 26 26 26 26 27 27 28 29 29 30 31 31 32 33 33 33 33 33 33 33 33 33 32 31 31 30 29 29 28 28 28 28 29 30 30 30 31 32 32 34 35 37 38 39 39 39 40 42 44 45 46 45 45 44 45 47 50 52 54 56
57 59 57 52 48 47 49 50 51 52 53 54 55 55 55 57 59 59 58 55 53 52 51 50 48 46 45 43 41 39 37 37 36 35 34 33 33 32 31 31 30 29 28 28 28 28 28 28 29 30 31 31 32 32 33 34 35 35 36 36 36 35 35 34 33 33 31 31 30 30 29 29 28 28 28 28 28 28 28 29 30 31 31 32 33 34 36 38 38 39 38 38 39 40 42 44 46 49 53 55 57 58 58
51 51 49 45 44 45 48 51 54 56 58 59 58 56 55 57 59 60 60 58 57 55 54 53 51 49 47 45 43 41 40 40 39 38 36 35 34 33 33 32 32 31 31 30 30 30 30 31 32 32 33 33 34 35 36 36 37 37 38 38 37 37 36 35 34 33 32 31 30 30 29 29 29 29 28 28 28 28 28 29 30 31 32 32 33 34 35 36 36 36 35 35 37 40 43 47 50 54 58 59 59 59 58
46 44 42 42 43 46 49 54 58 61 63 63 61 59 57 58 60 61 62 61 60 58 58 57 55 52 49 48 46 44 43 43 43 42 39 37 36 36 35 35 34 34 34 34 34 34 34 34 35 35 36 36 37 38 38 39 39 39 39 38 38 37 36 35 34 33 32 31 31 30 30 30 30 29 29 28 29 29 30 32 33 34 34 34 34 35 35 34 33 32 33 36 40 44 49 52 54 56 59 60 60 59 58
43 42 41 43 45 48 52 57 61 65 67 67 65 61 59 59 61 63 64 63 63 62 61 60 58 57 54 52 50 48 47 48 48 46 44 42 41 41 40 39 38 37 36 37 37 37 38 38 38 38 38 39 39 40 40 40 40 40 40 39 38 37 37 35 35 34 33 33 33 32 32 31 31 30 30 30 30 32 33 35 36 36 36 36 35 34 33 31 30 31 33 38 43 48 51 53 54 55 57 58 58 58 58
46 44 43 45 47 51 56 62 66 69 70 71 68 65 61 60 61 63 65 65 65 65 64 64 64 63 61 58 55 53 52 52 51 49 47 46 46 47 47 45 43 41 40 40 41 41 42 42 42 41 41 41 41 41 41 41 41 41 40 40 40 39 39 38 37 36 36 35 35 34 34 33 32 31 30 31 32 33 35 37 39 39 39 38 36 33 31 29 30 32 36 40 44 47 49 51 52 54 54 55 55 56 56
55 51 48 47 49 53 60 67 72 74 75 75 73 70 65 63 63 64 65 65 66 66 66 68 69 70 69 66 63 60 58 56 54 52 51 51 51 52 51 49 47 46 46 46 46 45 46 45 45 44 43 43 43 42 42 42 42 43 43 44 44 44 43 42 40 39 38 38 38 37 36 35 33 32 31 31 32 34 36 38 40 41 40 38 36 33 30 29 30 33 36 40 43 45 46 47 49 50 52 52 52 54 55
67 62 56 52 52 55 63 68 73 77 78 79 77 75 71 67 65 65 66 66 66 67 68 70 73 75 75 72 69 66 64 64 62 60 58 58 58 57 55 53 51 51 52 51 51 50 49 48 47 46 46 45 45 45 45 46 47 48 49 49 50 49 48 46 44 42 41 40 40 40 39 37 35 33 32 32 32 33 36 38 40 40 40 38 36 34 31 30 31 33 37 40 42 43 44 45 46 46 48 48 50 51 53
78 73 68 62 60 61 66 70 74 77 79 79 77 75 73 70 69 68 67 67 68 69 71 74 78 80 79 76 73 71 73 75 74 72 69 68 66 63 60 57 56 56 56 56 55 54 52 50 49 48 48 48 48 49 51 52 53 54 55 56 55 54 53 50 48 45 43 42 42 42 41 39 37 36 34 33 32 33 35 37 38 39 39 38 36 34 32 31 32 34 36 39 42 43 43 43 44 44 45 45 47 49 51
87 84 79 75 71 70 71 73 75 76 78 78 77 76 73 73 73 72 71 70 71 73 75 79 82 83 81 78 77 78 81 84 85 83 80 78 76 73 68 65 63 62 61 59 58 56 54 52 50 49 49 50 51 53 55 57 58 59 59 59 58 56 55 53 51 49 47 46 45 44 43 41 40 38 36 34 33 34 36 37 38 39 38 37 36 34 33 32 33 33 36 39 41 43 43 43 43 43 44 45 46 47 49
91 90 87 85 83 81 80 79 78 78 79 80 79 78 76 77 78 79 77 75 76 78 80 83 85 85 83 81 82 84 87 90 90 89 88 86 84 82 78 74 71 69 66 63 60 57 55 53 51 50 51 53 54 56 58 59 60 60 61 60 60 59 57 56 54 53 52 50 48 46 45 43 42 40 38 37 36 37 39 41 42 41 40 38 36 35 34 33 33 34 36 39 42 43 44 43 43 43 43 44 46 47 48
91 92 91 91 90 90 89 86 84 82 81 82 82 81 80 82 85 86 84 83 82 83 84 86 87 87 86 85 85 87 90 91 92 92 92 90 89 87 83 80 76 73 70 65 61 58 56 54 53 53 54 55 56 58 59 60 61 62 64 65 65 64 63 61 59 58 56 53 51 49 47 46 45 44 43 42 42 43 45 47 48 47 45 41 38 36 35 34 34 34 36 39 41 43 44 44 44 43 44 44 45 47 48
91 92 92 92 93 93 93 91 88 86 85 83 82 82 82 85 88 90 90 89 88 88 88 88 89 90 89 87 87 88 91 92 93 93 93 91 90 87 85 81 78 75 71 67 63 60 58 57 57 57 58 58 59 59 60 61 63 65 68 70 72 71 70 68 65 62 60 57 55 54 53 53 52 52 51 51 50 51 52 53 53 53 50 46 42 39 37 36 35 35 37 39 42 44 45 46 46 46 46 46 47 47 48
90 90 90 91 92 92 92 91 90 89 88 85 83 81 81 84 88 91 92 92 92 92 91 92 92 92 90 89 89 90 93 93 93 93 92 90 88 87 85 82 78 75 71 67 65 63 61 60 60 60 60 60 61 62 63 65 66 68 71 73 73 73 72 70 67 65 63 61 60 59 58 58 58 58 57 57 58 58 58 58 58 57 55 51 48 45 42 40 38 38 39 42 44 45 45 47 49 51 52 52 52 51 51
88 89 89 90 90 91 92 92 92 92 91 88 85 83 82 85 89 92 93 93 93 93 92 92 91 91 90 90 91 92 94 94 94 93 92 90 89 88 86 83 79 75 71 69 67 65 64 63 63 62 62 63 65 67 69 71 72 72 73 72 71 70 69 67 66 65 63 62 61 60 59 59 58 58 58 59 59 60 61 61 60 59 58 56 54 51 49 46 44 43 43 46 48 49 47 49 51 55 57 59 59 57 55
86 87 87 87 87 87 89 91 92 93 94 92 90 88 87 90 92 93 93 93 93 93 92 92 92 92 91 92 92 93 93 94 94 94 93 92 90 89 87 84 80 76 73 72 72 71 69 68 67 66 67 69 71 73 75 76 76 76 75 72 70 68 66 65 64 64 63 63 62 62 61 60 60 59 58 58 58 58 59 59 59 59 59 57 56 54 52 51 50 49 49 51 54 55 53 52 54 57 60 61 61 60 58
80 81 83 83 82 81 81 85 88 91 91 92 92 92 92 93 93 93 93 93 93 93 92 92 92 92 92 92 92 92 92 92 92 93 93 92 92 91 89 86 82 79 78 79 79 79 77 76 75 75 74 75 77 78 79 79 78 77 75 72 69 67 66 65 65 65 64 64 64 64 64 64 63 63 62 61 60 60 59 59 59 59 58 57 55 53 52 52 52 52 53 56 59 61 59 57 57 58 61 61 61 60 58
73 72 72 78 79 80 79 80 84 88 90 91 92 92 93 93 93 93 94 94 94 93 93 93 93 92 93 93 93 92 91 92 92 92 92 92 93 92 91 88 86 85 84 84 85 85 83 80 79 78 78 79 80 80 80 79 78 77 75 72 70 68 66 65 63 62 61 60 60 61 62 63 64 65 65 65 65 65 65 65 64 62 61 58 55 52 51 51 52 54 56 60 63 65 64 61 60 60 61 61 60 59 57
66 65 63 69 75 79 79 79 80 83 88 90 91 92 92 92 92 93 93 92 91 91 91 92 93 93 93 93 93 93 93 92 92 92 91 90 90 90 89 89 89 88 87 87 87 87 85 82 80 79 79 79 79 79 78 78 77 75 73 69 66 63 61 59 58 56 55 55 55 56 57 59 61 63 65 67 68 69 70 70 69 67 65 60 56 52 50 50 52 54 58 63 66 68 68 65 64 63 63 62 60 58 57
58 59 58 59 67 75 78 78 77 78 81 85 88 90 91 91 91 91 91 91 91 91 91 92 92 92 91 90 91 91 91 91 90 89 88 88 87 86 86 86 86 86 87 87 87 87 86 83 82 80 77 76 77 78 77 76 74 71 67 63 60 57 56 54 54 53 53 53 53 54 55 57 59 61 63 66 68 70 71 71 70 68 64 59 55 52 49 50 51 55 60 65 68 70 70 69 67 65 64 63 61 60 59
51 53 53 52 57 66 75 76 76 76 76 79 82 85 88 89 91 92 92 92 93 94 93 94 93 92 90 89 88 88 88 88 87 86 85 85 85 85 84 84 85 85 85 86 86 85 85 82 81 79 78 77 77 77 76 73 70 67 63 59 56 54 54 54 54 54 55 56 56 57 58 59 60 61 63 65 67 69 70 70 69 66 63 58 54 51 49 49 51 55 60 65 69 72 72 71 70 69 67 65 63 62 61
45 47 49 48 51 59 70 74 75 75 74 75 77 81 85 87 89 91 92 92 93 94 94 94 94 93 91 89 88 87 87 86 87 87 86 86 86 85 85 86 86 86 85 83 82 82 81 80 79 78 77 77 75 74 72 70 67 65 62 59 57 56 55 56 57 58 59 60 61 61 61 61 61 61 62 63 64 66 68 69 69 68 66 62 58 55 53 53 54 56 60 65 70 73 74 74 73 72 70 67 65 63 62
43 44 44 44 46 52 65 72 75 75 75 74 76 78 84 87 89 89 90 91 92 93 93 93 93 92 91 90 90 90 89 88 88 88 88 88 86 85 85 86 86 85 83 82 80 79 78 78 76 75 73 72 71 70 69 67 66 64 63 61 59 59 59 60 60 61 62 62 63 62 62 61 60 59 59 59 60 61 62 63 64 65 66 66 64 62 60 59 59 59 62 65 69 73 76 77 76 75 73 70 67 65 62
45 43 41 41 43 48 58 70 75 76 74 74 76 79 84 87 89 90 89 90 90 91 92 91 90 89 89 89 89 89 89 89 88 86 85 83 81 78 77 79 80 81 81 80 78 77 76 74 72 71 69 68 67 67 68 67 66 64 63 62 62 62 62 63 63 64 64 64 63 63 62 61 60 59 58 58 58 59 60 60 61 62 63 65 66 67 66 65 64 64 64 66 68 71 75 77 77 77 75 73 71 68 66